DECAYED

RESURS P1 DEB, 60218 (Decayed)

Orbit data source: Space-Track

RESURS P1 DEB, 60218 was space debris in SSO originally from a Commonwealth of Independent States-origin launch on Tue, 25 Jun 2013 UTC launched from the Tyuratam Missile And Space Complex (TTMTR). Debris objects in space refer to the collection of defunct objects orbiting the Earth. Examples of debris include non-operational satellites, rocket bodies, and fragments generated from explosions, collisions, or faulty payload assembly.

Not visible in the next 10 days
RESURS P1 DEB details
Identifier
60218, 2013-030G
Orbit
Decayed
Last TLE update5 months ago
Origin
Flag of CISTSSKBP? (CIS)
ManufacturerTSSKBP?
MissionDecayed spacecraft
Bus & MotorUnknown
MassUnknown
Launch date (UTC)
2013-06-25 (11 years ago)
Launch vehicleUnknown
Launch site
Tyuratam Missile And Space Complex (TTMTR)
Object type
Payload
Rocket body
Debris
Shape & HBRUnknown
Radar Cross SectionSmall (<0.1 m²)

Expand to show TLE details & history

TLE from 5 months ago
0 RESURS P1 DEB
1 60218U 13030G   24194.09553758  .13272564  22311-5  91244-2 0  9992
2 60218  96.9619 243.9518 0023883 313.0053  46.9232 16.15837279  2311
Epoch: 2024-07-12T02:17Z
Definitive object data (Epoch: 2024-07-12T02:17:34.446Z)
Latitude-0.00014°
Longitude-80.91845°
Altitude223.347 km
Speed7.779 km/s
True Right ascension16h 15m 48s
True Declination0° 00' 01"
Sunlit
Object was in full shadow at TLE epoch
Visualization observer readout
Observer readout values are unavailable because the object's trajectory could not be propagated. This is usually caused when the trajectory data is faulty or the object's orbit has decayed.
Visualization observer readout
Observer readout values are unavailable because the object's trajectory could not be propagated. This is usually caused when the trajectory data is faulty or the object's orbit has decayed.
Orbital elements
Apogee altitude243.475 km
Perigee altitude211.922 km
Semi-major axis6,605.835 km
Eccentricity0.0023883
Inclination96.9619°
RAAN243.9518°
Arg. of periapsis313.0053°
True anomaly47.12351°
Mean anomaly46.9232°
Eccentric anomaly47.02332°
Mean motion4.04251 °/min
BSTAR0.0091244
Orbital period89.05 mins
Loading maneuver chart data...

RESURS P1 DEB Visibility forecast

Observer location: undefined°, undefined

This satellite is decayed
Span
Click to sort rows by Start time (UTC) header in descending order
Start Az.
Max El. time (UTC)
Max El. Az.
Max El.
End time (UTC)
End Az.
|